Tiempo cada hora Dabrocz

Hoy, 25 Junio, Viernes

Tiempo Temperatura Precipitaciones Viento Presión Humedad
00:00 +18°C° 0.6 mm 2 mps 738 mmHg 93%
01:00 +18°C° 0.6 mm 2 mps 738 mmHg 94%
02:00 +19°C° 0.2 mm 1 mps 738 mmHg 93%
03:00 +19°C° 0.2 mm 1 mps 738 mmHg 92%
04:00 +17°C° 0.2 mm 0 mps 737 mmHg 91%
05:00 +21°C° 0 mm 1 mps 737 mmHg 88%
06:00 +22°C° 0 mm 1 mps 737 mmHg 84%
07:00 +24°C° 0 mm 1 mps 737 mmHg 81%
08:00 +25°C° 0.2 mm 1 mps 737 mmHg 77%
09:00 +26°C° 0.2 mm 2 mps 738 mmHg 73%
10:00 +28°C° 0.2 mm 2 mps 738 mmHg 69%
11:00 +28°C° 0.3 mm 3 mps 737 mmHg 69%
12:00 +27°C° 0.3 mm 5 mps 737 mmHg 70%
13:00 +27°C° 0.3 mm 6 mps 737 mmHg 71%
14:00 +26°C° 0.2 mm 5 mps 737 mmHg 73%
15:00 +25°C° 0.2 mm 5 mps 737 mmHg 76%
16:00 +23°C° 0.2 mm 5 mps 738 mmHg 79%
17:00 +22°C° 0.3 mm 4 mps 738 mmHg 82%
18:00 +22°C° 0.3 mm 3 mps 738 mmHg 85%
19:00 +21°C° 0.3 mm 3 mps 738 mmHg 89%
20:00 +20°C° 0.1 mm 3 mps 738 mmHg 90%
21:00 +19°C° 0.1 mm 3 mps 738 mmHg 92%
22:00 +19°C° 0.1 mm 3 mps 739 mmHg 94%
23:00 +19°C° 0 mm 3 mps 739 mmHg 93%

Mañana, 26 Junio, Sábado

Tiempo Temperatura Precipitaciones Viento Presión Humedad
00:00 +18°C° 0 mm 3 mps 739 mmHg 92%
01:00 +18°C° 0 mm 3 mps 739 mmHg 91%
02:00 +18°C° 0 mm 3 mps 739 mmHg 92%
03:00 +18°C° 0 mm 2 mps 739 mmHg 92%
04:00 +18°C° 0 mm 2 mps 739 mmHg 92%
05:00 +19°C° 0 mm 2 mps 739 mmHg 89%
06:00 +19°C° 0 mm 2 mps 740 mmHg 85%
07:00 +20°C° 0 mm 3 mps 740 mmHg 82%
08:00 +21°C° 0.1 mm 3 mps 740 mmHg 76%
09:00 +22°C° 0.1 mm 3 mps 740 mmHg 70%
10:00 +24°C° 0.1 mm 3 mps 740 mmHg 64%
11:00 +24°C° 0.2 mm 3 mps 740 mmHg 63%
12:00 +25°C° 0.2 mm 4 mps 740 mmHg 61%
13:00 +25°C° 0.2 mm 4 mps 740 mmHg 59%
14:00 +25°C° 0.1 mm 4 mps 740 mmHg 60%
15:00 +24°C° 0.1 mm 3 mps 740 mmHg 61%
16:00 +24°C° 0.1 mm 3 mps 739 mmHg 62%
17:00 +22°C° 0 mm 3 mps 739 mmHg 66%
18:00 +21°C° 0 mm 3 mps 739 mmHg 69%
19:00 +21°C° 0 mm 2 mps 739 mmHg 73%
20:00 +19°C° 0 mm 2 mps 740 mmHg 76%
21:00 +18°C° 0 mm 2 mps 740 mmHg 80%
22:00 +17°C° 0 mm 2 mps 740 mmHg 83%
23:00 +17°C° 0 mm 2 mps 740 mmHg 85%

Pasado mañana, 27 Junio, Domingo

Tiempo Temperatura Precipitaciones Viento Presión Humedad
00:00 +16°C° 0 mm 2 mps 740 mmHg 87%
01:00 +16°C° 0 mm 2 mps 740 mmHg 89%
02:00 +16°C° 0 mm 2 mps 740 mmHg 89%
03:00 +15°C° 0 mm 2 mps 740 mmHg 90%
04:00 +15°C° 0 mm 2 mps 740 mmHg 91%
05:00 +17°C° 0 mm 2 mps 740 mmHg 84%
06:00 +19°C° 0 mm 2 mps 741 mmHg 77%
07:00 +20°C° 0 mm 2 mps 741 mmHg 70%
08:00 +23°C° 0 mm 2 mps 741 mmHg 65%
09:00 +24°C° 0 mm 2 mps 741 mmHg 59%
10:00 +25°C° 0 mm 2 mps 741 mmHg 54%
11:00 +25°C° 0 mm 2 mps 741 mmHg 54%
12:00 +25°C° 0 mm 2 mps 741 mmHg 54%
13:00 +25°C° 0 mm 3 mps 740 mmHg 54%
14:00 +25°C° 0 mm 2 mps 740 mmHg 54%
15:00 +25°C° 0 mm 2 mps 740 mmHg 53%
16:00 +25°C° 0 mm 2 mps 741 mmHg 53%
17:00 +24°C° 0 mm 1 mps 740 mmHg 59%
18:00 +23°C° 0 mm 1 mps 740 mmHg 65%
19:00 +22°C° 0 mm 1 mps 740 mmHg 71%
20:00 +21°C° 0 mm 1 mps 740 mmHg 74%
21:00 +20°C° 0 mm 1 mps 740 mmHg 78%
22:00 +16°C° 0 mm 0 mps 741 mmHg 81%
23:00 +16°C° 0 mm 0 mps 741 mmHg 82%

28 Junio, Lunes

Tiempo Temperatura Precipitaciones Viento Presión Humedad
00:00 +16°C° 0 mm 0 mps 741 mmHg 84%
01:00 +15°C° 0 mm 0 mps 741 mmHg 85%
02:00 +15°C° 0 mm 0 mps 741 mmHg 85%
03:00 +15°C° 0 mm 0 mps 741 mmHg 86%
04:00 +15°C° 0 mm 0 mps 740 mmHg 86%
05:00 +19°C° 0 mm 1 mps 741 mmHg 80%
06:00 +20°C° 0 mm 1 mps 741 mmHg 74%
07:00 +22°C° 0 mm 1 mps 741 mmHg 68%
08:00 +23°C° 0 mm 1 mps 741 mmHg 62%
09:00 +25°C° 0 mm 2 mps 741 mmHg 56%
10:00 +26°C° 0 mm 2 mps 741 mmHg 50%
11:00 +26°C° 0 mm 2 mps 741 mmHg 48%
12:00 +27°C° 0 mm 3 mps 741 mmHg 47%
13:00 +27°C° 0 mm 3 mps 741 mmHg 45%
14:00 +27°C° 0 mm 3 mps 741 mmHg 45%
15:00 +27°C° 0 mm 3 mps 741 mmHg 44%
16:00 +27°C° 0 mm 3 mps 740 mmHg 44%
17:00 +25°C° 0 mm 2 mps 740 mmHg 50%
18:00 +24°C° 0 mm 2 mps 740 mmHg 56%
19:00 +22°C° 0 mm 1 mps 740 mmHg 62%
20:00 +21°C° 0 mm 1 mps 740 mmHg 62%
21:00 +20°C° 0 mm 1 mps 740 mmHg 63%
22:00 +19°C° 0 mm 1 mps 740 mmHg 63%
23:00 +19°C° 0 mm 1 mps 740 mmHg 66%

29 Junio, Martes

Tiempo Temperatura Precipitaciones Viento Presión Humedad
00:00 +18°C° 0 mm 1 mps 739 mmHg 68%
01:00 +16°C° 0 mm 1 mps 739 mmHg 70%
02:00 +16°C° 0 mm 1 mps 739 mmHg 72%
03:00 +16°C° 0 mm 1 mps 739 mmHg 73%
04:00 +15°C° 0 mm 0 mps 739 mmHg 74%
05:00 +17°C° 0 mm 0 mps 739 mmHg 68%
06:00 +21°C° 0 mm 1 mps 739 mmHg 63%
07:00 +23°C° 0 mm 1 mps 739 mmHg 57%
08:00 +25°C° 0 mm 1 mps 739 mmHg 52%
09:00 +26°C° 0 mm 1 mps 739 mmHg 48%
10:00 +28°C° 0 mm 1 mps 739 mmHg 43%
11:00 +28°C° 0 mm 1 mps 739 mmHg 41%
12:00 +29°C° 0 mm 1 mps 738 mmHg 39%
13:00 +29°C° 0 mm 1 mps 738 mmHg 37%
14:00 +29°C° 0 mm 1 mps 738 mmHg 37%
15:00 +29°C° 0 mm 1 mps 738 mmHg 38%
16:00 +29°C° 0 mm 1 mps 737 mmHg 38%
17:00 +28°C° 0 mm 2 mps 737 mmHg 47%
18:00 +26°C° 0 mm 2 mps 737 mmHg 56%
19:00 +24°C° 0 mm 3 mps 737 mmHg 65%
20:00 +22°C° 0 mm 3 mps 737 mmHg 68%
21:00 +21°C° 0 mm 3 mps 737 mmHg 70%
22:00 +20°C° 0 mm 3 mps 737 mmHg 73%
23:00 +19°C° 0 mm 3 mps 737 mmHg 73%

30 Junio, Miércoles

Tiempo Temperatura Precipitaciones Viento Presión Humedad
00:00 +19°C° 0 mm 3 mps 737 mmHg 74%
01:00 +18°C° 0 mm 3 mps 736 mmHg 74%
02:00 +18°C° 0 mm 3 mps 736 mmHg 77%
03:00 +18°C° 0 mm 3 mps 736 mmHg 80%
04:00 +18°C° 0 mm 3 mps 736 mmHg 83%
05:00 +20°C° 0 mm 3 mps 736 mmHg 79%
06:00 +22°C° 0 mm 3 mps 736 mmHg 75%
07:00 +25°C° 0 mm 3 mps 735 mmHg 71%
08:00 +26°C° 0 mm 3 mps 735 mmHg 66%
09:00 +28°C° 0 mm 3 mps 735 mmHg 61%
10:00 +30°C° 0 mm 2 mps 735 mmHg 56%
11:00 +31°C° 0 mm 2 mps 735 mmHg 53%
12:00 +32°C° 0 mm 2 mps 734 mmHg 49%
13:00 +34°C° 0 mm 2 mps 734 mmHg 46%
14:00 +30°C° 3.1 mm 3 mps 734 mmHg 58%
15:00 +28°C° 3.1 mm 4 mps 733 mmHg 70%
16:00 +24°C° 3.1 mm 6 mps 732 mmHg 82%
17:00 +22°C° 7 mm 4 mps 733 mmHg 86%
18:00 +20°C° 7 mm 3 mps 734 mmHg 90%
19:00 +19°C° 7 mm 1 mps 734 mmHg 94%
20:00 +18°C° 0 mm 2 mps 734 mmHg 95%
21:00 +18°C° 0 mm 3 mps 735 mmHg 96%
22:00 +19°C° 0 mm 3 mps 735 mmHg 97%
23:00 +18°C° 0 mm 3 mps 735 mmHg 97%
Mostrar más

Necesitamos Su Consentimiento

Meteoprog y nuestros Proveedores de Servicios pueden almacenar y acceder a sus datos personales como cookies, identificadores de dispositivo u otras tecnologías similares de su dispositivo y procesar dichos datos para personalizar contenido y anuncios, además de ofrecer funciones de redes sociales y analizar el tráfico.

  • Almacenar y/o acceder a información en su dispositivo

    Se puede almacenar o acceder a cookies, identificadores de dispositivo u otra información de su dispositivo para los fines anteriormente indicados.

  • Anuncios y contenido personalizados, medición de anuncios y contenido, percepciones del público, y desarrollo de productos

    Los anuncios y el contenido pueden personalizarse en base a su perfil. Se pueden añadir más datos para personalizar mejor los anuncios y contenidos. Se puede medir el rendimiento de los anuncios y contenidos. Se puede obtener la percepción sobre el público que ha visto los anuncios y contenidos. Dichos datos pueden usarse para desarrollar o mejorar la experiencia del usuario, sistemas y software.

Al hacer clic en ‘Estoy De Acuerdo’ usted permitirá el uso de las cookies, identificadores de dispositivo, balizas web u otras tecnologías similares indicadas. Su configuración puede cambiarse desde el navegador de su dispositivo.

Para ciertos fines, los intereses legítimos pueden ser considerados por encima del consentimiento. Puede leer más sobre ello en nuestra Política de Privacidad y Cookies.